Location: Saint Louis
(38.6272°N, 90.1978°W)
Time: 16:10:19
(UTC-05:00)

ISS - Pass Details

Date: 21 September 2013
Orbit: 401 x 404 km, 51.6° (Epoch: 27 July)

Event Time Altitude Azimuth Distance (km) Brightness Sun altitude
Exits shadow 05:12:53 13° 336° (NNW) 1,316 -0.8 -19.1°
Maximum altitude 05:13:11 13° 342° (NNW) 1,309 -0.8 -19.0°
Drops below altitude 10° 05:14:57 10° 14° (NNE) 1,499 -0.1 -18.7°
Sets 05:17:54 0° 42° (NE) 2,358 1.6 -18.1°
